Regional Weather Roundup
Issued by NWS

Home | Current Version | Previous Version | Text Only | Print | Product List | Glossary On
Versions: 1 2 3 4 5 6 7 8 9 10 11 12 13 14 15 16 17 18 19 20 21 22 23 24 25 26 27 28 29 30 31 32 33 34 35 36 37 38 39 40 41 42 43 44 45 46 47 48 49 50
000
ASUS44 KFWD 222203
RWRTX
NORTH TEXAS HOURLY WEATHER ROUNDUP
NATIONAL WEATHER SERVICE FORT WORTH TX
500 PM CDT MON SEP 22 2014

NOTE: "FAIR" INDICATES FEW OR NO CLOUDS BELOW 12,000 FEET WITH NO
SIGNIFICANT WEATHER AND/OR OBSTRUCTIONS TO VISIBILITY.

TXZ118-119-222300-
DALLAS/FORT WORTH METROPLEX

CITY           SKY/WX    TMP DP  RH WIND       PRES   REMARKS
DFW AIRPORT    MOSUNNY   87  46  24 N8        30.11F
DALLAS LOVE    MOSUNNY   87  48  25 E10G22    30.11F
FTW MEACHAM    SUNNY     87  47  24 E9        30.11F
DAL-EXECUTIVE  SUNNY     89  46  22 NE9       30.10F
FTW-ALLIANCE   MOSUNNY   87  45  23 NE8       30.11F
FTW-NAS-JRB    MOSUNNY   90  47  22 NE9       30.15F
FTW-SPINKS     SUNNY     88  48  25 N8        30.12F
ARLINGTON      SUNNY     87  47  24 NE9       30.11F
GRAND PRAIRIE  SUNNY     86  46  25 MISG      30.12F
ADDISON        SUNNY     86  45  23 N9        30.12F
MESQUITE       SUNNY     86  43  22 NE7       30.11F
LANCASTER      SUNNY     86  44  23 NE8       30.11F
$$

TXZ091>094-102>105-117-120-121-131>134-222300-
NORTH CENTRAL TEXAS

CITY           SKY/WX    TMP DP  RH WIND       PRES   REMARKS
SHRMAN/DENISON SUNNY     81  51  35 NE7       30.16F
GAINESVILLE    SUNNY     80  51  37 NE8       30.17F
BOWIE          SUNNY     84  47  26 E5        30.15F
BRIDGEPORT     SUNNY     85  45  24 NE7       30.15F
DECATUR        SUNNY     82  45  26 NE6       30.15S
DENTON         SUNNY     85  47  26 N10       30.12F
MCKINNEY       SUNNY     85  49  28 VRB7      30.12F
GREENVILLE     SUNNY     82  46  28 E7        30.13S
ROCKWALL       SUNNY     85  50  30 NE7       30.11S
TERRELL        SUNNY     87  46  24 NE10      30.11F
WAXAHACHIE     SUNNY     87  43  21 NE6       30.12S
CLEBURNE       SUNNY     86  55  35 VRB5G14   30.12F
GRANBURY       SUNNY     89  54  30 NE7       30.11F
$$

TXZ083>090-098>101-113>116-127>130-139>142-154-155-222300-
WESTERN NORTH TEXAS

CITY           SKY/WX    TMP DP  RH WIND       PRES   REMARKS
WICHITA FALLS  SUNNY     84  48  28 E13       30.14F
WF-KICKAPOO    SUNNY     85  44  23 NE8       30.15F
VERNON         SUNNY     85  46  25 E9        30.16F
ABILENE        PTSUNNY   87  61  41 NE10      30.14F
ABILENE-DYESS  MOSUNNY   87  56  35 E8        30.13F
BRECKENRIDGE   PTSUNNY   89  57  33 NE7       30.11F
MINERAL WELLS  SUNNY     89  52  28 E6        30.10F
STEPHENVILLE   SUNNY     87  60  41 NE9       30.14F
COMANCHE       MOSUNNY   87  62  42 E7        30.12S
COLEMAN        MOSUNNY   88  61  39 NE8       30.12F
BRADY          SUNNY     86  63  45 NE7       30.12F
$$

TXZ143>147-156>162-174-175-222300-
CENTRAL TEXAS

CITY           SKY/WX    TMP DP  RH WIND       PRES   REMARKS
WACO           SUNNY     89  60  37 NE6       30.07F
WACO-TSTC      SUNNY     90  59  35 NE8       30.07F
WACO-MCGREGOR  SUNNY     90  63  40 E14       30.08F HX  90
HILLSBORO      SUNNY     89  54  30 NE8       30.10S
CORSICANA      SUNNY     88  55  32 E10       30.10F
MEXIA          SUNNY     87  60  40 NE7       30.07F
HEARNE         SUNNY     88  69  54 N9        30.05F HX  92
CAMERON        SUNNY     89  68  50 NE8G18    30.05F HX  92
TEMPLE         MOSUNNY   86  64  48 NE12      30.06F
KILLEEN        MOSUNNY   88  66  48 NE12      30.08F HX  90
KILLEEN-SKYLRK PTSUNNY   88  64  45 NE15      30.07F
FORT HOOD      MOSUNNY   91  67  44 N10G21    30.07F HX  94
HAMILTON       SUNNY     86  63  45 NE6G18    30.12F
LAMPASAS       MOSUNNY   89  70  54 NE7       30.09S HX  94
$$

TXZ095>097-106>112-122>126-135>138-148>153-164>167-222300-
EAST TEXAS

CITY           SKY/WX    TMP DP  RH WIND       PRES   REMARKS
PARIS          SUNNY     79  52  38 N8        30.15F
SULPHUR SPRNGS SUNNY     83  46  26 NE10      30.15S
MOUNT PLEASANT SUNNY     81  52  36 NE6       30.14F
GILMER         SUNNY     82  50  32 NE9       30.13F
MINEOLA        SUNNY     84  48  28 NE6       30.13S
TYLER          SUNNY     85  53  33 N10       30.10F
LONGVIEW       SUNNY     86  50  28 NE10      30.09F
MARSHALL       SUNNY     89  49  25 NE8       30.12S
ATHENS         SUNNY     84  52  32 NE9       30.09S
PALESTINE      SUNNY     86  58  38 NE8       30.09F
HENDERSON      SUNNY     85  50  29 N8        30.10S
NACOGDOCHES    SUNNY     86  55  35 NE6       30.08S
LUFKIN         SUNNY     90  60  36 N7        30.06F
$$

SUPPLEMENTAL OBSERVATIONS (CENTRAL)

CITY           SKY/WX    TMP DP  RH WIND       PRES   REMARKS
$$

SUPPLEMENTAL OBSERVATIONS (WEST)

CITY           SKY/WX    TMP DP  RH WIND       PRES   REMARKS
$$

SUPPLEMENTAL OBSERVATIONS (EAST)

CITY           SKY/WX    TMP DP  RH WIND       PRES   REMARKS
$$

SUPPLEMENTAL OBSERVATIONS ARE A COLLECTION OF AUTOMATED INSTRUMENTS
THAT ARE MAINTAINED BY A VARIETY OF FEDERAL AND STATE AGENCIES.
CERTAIN ELEMENTS...SUCH AS HUMIDITY VALUES AND SUSTAINED WIND
SPEEDS...MAY BE APPROXIMATED.



USA.gov is the U.S. government's official web portal to all federal, state and local government web resources and services.